FENGYUN 1C DEB

Satellite information

Favourite Embed

Satellite Type and Status

DEBRISIN ORBIT

Key statistics

Satellite FENGYUN 1C DEB at a glance.

Uptime

9670

Days in orbit

Revolutions

≈ 13.7

Per day

Orbit

SSO

Sun Synchronous Orbit

Inclination

98.6

Latest

Satellite identification and parameters

Extended collection of information and parameters for FENGYUN 1C DEB.

Object identification

Identified? True

Debris? True

Object name: FENGYUN 1C DEB

International designator: 1999-025YY

Object number (NORAD): 30287

Object ID (CCSDS): 30287

Country: PEOPLES REPUBLIC OF CHINA (PRC)

Current information (Y/N): Y

RCS size: SMALL

Orbital parameters

Period: 105.232 minutes

Inclination: 98.6432 deg

SMA: 7383.445 km

Apoapsis: 1312.078 km

Periapsis: 698.542 km

RAAN: 341.5361 deg

Eccentricy: 0.04154807

Argument of periapsis: 128.7448 deg

Mean anomaly: 47.619 deg

Mean motion: 13.68403547 rev/day

Mean motion (dot): 0.00001906 rev/day2

B* drag term: 0.0012397207 1/REarth

Two-line elements (TLE)

Creation date: Oct. 30, 2025, 3:32 a.m.

Reference frame: TEME

Reference center: EARTH

Epoch: Oct. 29, 2025, 9 p.m. UTC

TLE line 0: 0 FENGYUN 1C DEB

TLE line 1: 1 30287U 99025YY 25302.87532779 .00001906 00000-0 12397-2 0 9995

TLE line 2: 2 30287 98.6432 341.5361 0415481 128.7448 47.6190 13.68403547932589

Live tracking on map

Real-time ground track for satellite FENGYUN 1C DEB.

In-orbit conjunctions

A list of the most updated potential collisions computed for object FENGYUN 1C DEB.

Target Orbit TCA Probability of collision Miss distance Type
SSD LEO 2024-09-24 19:22:38 0.0003610968 755.0 (m) PAYLOAD
COSMOS 1275 DEB LEO 2024-08-22 22:18:18 0.0001086158 182.0 (m) DEBRIS

Associated space launch

Chinese polar orbiting meteorological satellite

FENGYUN 1C DEB was lifted into orbit during the mission ‘Long March 4B | Feng Yun 1C’, on board a Long March 4B space rocket.

The launch took place on May 10, 1999, 1:33 a.m. from Launch Complex 7.

For more information about the launch, click the button.

Launch to space Long March 4B | Feng Yun 1C
Long March 4B | Feng Yun 1C

Agency: N/A

Status: Launch Successful

Launch date: May 10, 1999, 1:33 a.m. UTC

Rocket: Long March 4B

Launch pad: Launch Complex 7

Location: Taiyuan Satellite Launch Center, People's Republic of China

...

Latest news about this satellite

There are no fresh news available about this satellite. Check back as we update our databases every day.


Newsletter sign-up

Weekly statistics, charts and insights to help you stay on top of the space industry.